Location: Brede
(50.9167°N, 0.6000°E)
Time: 02:31:34
(UTC+00:00)

Cosmos 2297 Rocket - Pass Details

Date: 08 August 2020
Orbit: 838 x 845 km, 71.0° (Epoch: 19 September)

Event Time Altitude Azimuth Distance (km) Brightness Sun altitude
Exits shadow 00:31:23 22° 122° (ESE) 1,762 3.6 -22.7°
Maximum altitude 00:32:39 24° 102° (ESE) 1,684 3.7 -22.7°
Drops below altitude 10° 00:37:03 10° 51° (NE) 2,466 5.2 -22.6°
Sets 00:39:55 0° 38° (NE) 3,407 6.4 -22.5°
